Location: *
(51.5000°N, 0.1100°W)
Time: 01:01:00
(UTC+00:00)

MSX - Pass Details

Date: 07 August 2024
Orbit: 895 x 904 km, 99.0° (Epoch: 09 September)

Event Time Altitude Azimuth Distance (km) Brightness Sun altitude
Rises 00:12:34 0° 29° (NNE) 3,543 8.0 -22.2°
Reaches altitude 10° 00:16:21 10° 54° (NE) 2,596 6.7 -22.1°
Maximum altitude 00:19:16 14° 84° (E) 2,312 6.1 -22.1°
Drops below altitude 10° 00:22:11 10° 115° (ESE) 2,586 6.0 -22.1°
Enters shadow 00:22:25 - 117° (ESE) 2,632 6.0 -22.1°
